Weather History for CYYH - January, 2014

Change the Weather History Date:

Wednesday, January 8, 2014

  Actual Average Record
Temperature  
Mean Temperature -26 °F -  
Max Temperature -13 °F -20 °F -7 °F (2006)
Min Temperature -38 °F -31 °F -45 °F (2001)
Degree Days  
Heating Degree Days 90    
Moisture  
Dew Point -31 °F    
Average Humidity 70    
Maximum Humidity 76    
Minimum Humidity 56    
Precipitation  
Precipitation 0.00 in - - ()
Sea Level Pressure  
Sea Level Pressure 29.52 in    
Wind  
Wind Speed 5 mph ()    
Max Wind Speed 12 mph    
Max Gust Speed -    
Visibility 14.0 miles    
Events Fog , Snow    
Averages and records for this station are not official NWS values.
T = Trace of Precipitation, MM = Missing Value Source: Averaged Metar Reports

Daily Weather History Graph

Daily Weather History Graph

Search for Another Location

Airport or City:

Trip Planner

Search our weather history database for the weather conditions in past years. The results will help you decide how hot, cold, wet, or windy it might be!

Date:

Astronomy

Jan. 08, 2014 Rise Set
Actual Time 11:48 AM CST 12:53 PM CST
Civil Twilight 9:42 AM CST 3:00 PM CST
Nautical Twilight 8:08 AM CST 4:34 PM CST
Astronomical Twilight 6:53 AM CST 5:49 PM CST
Moon 10:35 AM CST (1/8) 1:55 AM CST (1/8)
Length of Visible Light 5h 17m
Length of Day
1h 04m
First Quarter, 56% of the Moon is Illuminated
Jan 8
First Quarter
Jan 15
Full
Jan 23
Last Quarter
Jan 30
New
Feb 6
First Quarter

Hourly Weather History & Observations

Time (CST) Temp. Windchill Dew Point Humidity Pressure Visibility Wind Dir Wind Speed Gust Speed Precip Events Conditions
12:00 AM -35 °F - - % 29.80 in 15 mi South 3.5 mph - -   Partly Cloudy
12:00 AM -34.6 °F -47.4 °F - N/A% 29.80 in 15.0 mi South 3.5 mph - N/A   Clear
1:00 AM -34.6 °F -47.4 °F - N/A% 29.77 in 15.0 mi SSE 3.5 mph - N/A   Clear
2:00 AM -34.6 °F -50.3 °F -40.0 °F 75% 29.75 in 15.0 mi SSE 4.6 mph - N/A   Clear
2:28 AM - - - N/A% - 15.0 mi SSE 4.6 mph - N/A   Clear
3:00 AM -31.0 °F -46.1 °F -38.2 °F 68% 29.73 in 15.0 mi South 4.6 mph - N/A   Clear
4:00 AM -18.4 °F -31.4 °F -25.6 °F 70% 29.70 in 15.0 mi SW 4.6 mph - N/A   Mostly Cloudy
5:00 AM -20.2 °F -35.5 °F -25.6 °F 76% 29.68 in 15.0 mi NNW 5.8 mph - N/A   Partly Cloudy
6:00 AM -18 °F - -23 °F 65% 29.64 in 15 mi WNW 5.8 mph - - Snow Snow
6:00 AM -18.4 °F -35.1 °F -23.8 °F 76% 29.64 in 15.0 mi WNW 6.9 mph - N/A   Partly Cloudy
7:00 AM -14.8 °F -35.6 °F -22.0 °F 70% 29.60 in 15.0 mi NNW 11.5 mph - N/A   Partly Cloudy
8:00 AM -14.8 °F -24.8 °F -23.8 °F 64% 29.57 in 15.0 mi West 3.5 mph - N/A   Partly Cloudy
9:00 AM -13.0 °F -22.7 °F -23.8 °F 59% 29.53 in 15.0 mi NW 3.5 mph - N/A   Partly Cloudy
10:00 AM -16.6 °F -32.9 °F -22.0 °F 76% 29.50 in 15.0 mi NW 6.9 mph - N/A   Partly Cloudy
11:00 AM -16.6 °F -26.8 °F -25.6 °F 64% 29.48 in 15.0 mi North 3.5 mph - N/A   Partly Cloudy
12:00 PM -26 °F - -31 °F 62% 29.47 in 15 mi SE 4.6 mph - -   Partly Cloudy
12:00 PM -25.6 °F -37.1 °F -31.0 °F 76% 29.47 in 15.0 mi SE 3.5 mph - N/A   Partly Cloudy
1:00 PM -27.4 °F - -32.8 °F 75% 29.44 in 15.0 mi SSE 2.3 mph - N/A   Partly Cloudy
2:00 PM -27.4 °F -39.2 °F -32.8 °F 75% 29.44 in 15.0 mi SSE 3.5 mph - N/A   Partly Cloudy
2:42 PM - - - N/A% - 13.0 mi SSE 4.6 mph - N/A Fog Partly Cloudy
3:00 PM -27.4 °F -41.9 °F -34.6 °F 69% 29.42 in 13.0 mi SE 4.6 mph - N/A Fog Partly Cloudy
4:00 PM -27.4 °F -41.9 °F -34.6 °F 69% 29.42 in 13.0 mi SE 4.6 mph - N/A   Partly Cloudy
5:00 PM -27.4 °F -47.6 °F -34.6 °F 69% 29.40 in 15.0 mi SSE 8.1 mph - N/A   Partly Cloudy
6:00 PM -29 °F - -35 °F 56% 29.39 in 15 mi SSE 8.1 mph - - Snow Snow
6:00 PM -29.2 °F -51.2 °F -34.6 °F 75% 29.39 in 15.0 mi SSE 9.2 mph - N/A   Clear
7:00 PM -29.2 °F -51.2 °F -36.4 °F 68% 29.37 in 10.0 mi SE 9.2 mph - N/A   Clear
8:00 PM -29.2 °F -49.7 °F -34.6 °F 75% 29.34 in 6.0 mi SE 8.1 mph - N/A   Ice Crystals
9:00 PM -27.4 °F -47.6 °F -32.8 °F 75% 29.32 in 6.0 mi SE 8.1 mph - N/A   Ice Crystals
10:00 PM -27.4 °F -49.0 °F -32.8 °F 75% 29.32 in 15.0 mi SE 9.2 mph - N/A   Clear
11:00 PM -27.4 °F -50.3 °F -32.8 °F 75% 29.31 in 15.0 mi SSE 10.4 mph - N/A   Clear